Zurück zum Katalog

USA 134

AktivMilitärGEO
NORAD 25019·PAYLOAD·🇺🇸 United States

Gestartet Oct 25, 1997 von Cape Canaveral Space Force Station

Loading…

TLE

AktuellSource: Space-Track

Epoche: Sep 14, 2026, 10:39 UTC

1 25019U 97065A   26257.44391446 -.00000070  00000-0  00000-0 0  9999
2 25019  12.8900  21.0355 0002609 273.2861 106.7345  1.00270064 33856

Verfolge USA 134 in Echtzeit mit AllMySat

Download on the App Store